Время (UTC), дата Ветер
(°,м/с) 
Видим.   Явления Облачность Т
(°С)
Тd
(°С)
f(%) Тe
(°С)
Pmin
(гПа)
dP
(гПа)
Po
(мм)
O2
(г/м3)
Тmin Tmax R s Состояние
почвы
00 01.02.16 210 (ЮЗ) 4{11}  10 км    10/5 1000 м средняя, верхняя 
[Sc|Ac trans|Ci fib]
+9.1 +3.6 68 +8  1016.8  -1.5  760  296           
03 01.02.16 200 (Ю) 10 км    10/4 1000 м средняя, верхняя 
[Sc|Ac trans|Ci fib]
+9.4 +2.8 63 +8  1015  -1.8  758  295  +7.5         
06 01.02.16 190 (Ю) 4{12}  10 км    10/8 600 м кучево-дожд., средняя 
[Cb cap|Ac und]
+9.2 +4.5 72 +8  1014.7  -0.3  758  295           
09 01.02.16 190 (Ю) 4-10{10}  10 км    10/8 600 м кучево-дожд., средняя 
[Cb cap|Ac und]
+10.7 +5.6 71 +10  1013.7  -0.9  758  293           
12 01.02.16 190 (Ю) 4{11}  10 км  слаб. дождь  10/10 300 м 
[Frnb]
+9.3 +4.9 74 +8  1011.2  -2.5  756  294           
15 01.02.16 280 (З) 3{10}  4000 м  слаб. ливневой дождь  10/10 300 м кучево-дожд. 
[Cb cap]
+2.7 +1.6 92 +1  1014.4  3.1  758  302    +10.7     
18 01.02.16 260 (З) 2000 м  слаб. ливневой снег{дождь} [диам. отлож. мокр. снега 8 мм]  10/10 300 м кучево-дожд. 
[Cb cap]
+0.5 -0.3 94 +1  1016.7  2.3  760  306           
21 01.02.16 250 (З) 4000 м  слаб. ливневой дождь [диам. отлож. мокр. снега 8 мм]  10/10 300 м кучево-дожд. 
[Cb cap]
+1 +0.2 94 +2  1018  1.3  761  305           
00 02.02.16 260 (З) 10 км  {ливн. осадки}  9/9 300 м 
[St]
+1.4 +0.5 94 +2  1020.4  2.3  762  306           
03 02.02.16 230 (ЮЗ) 10 км    ясно 
+0.1 -0.9 93 +1  1022.3  1.9  764  308  +0.1    14  равномерный
мокрый или
старый снег
100% 
06 02.02.16 240 (ЮЗ) 10 км    4/4 300 м 
[St]
+0.6 -0.5 92 +1  1025.4  3.1  766  308  -0.8         
09 02.02.16 240 (ЮЗ) 10 км    3/3 300 м 
[St]
+3.4 -0.4 76 +2  1027.3  1.9  768  306           
12 02.02.16 220 (ЮЗ) 10 км    1/1 1000 м 
[Sc]
+7.4 -0.5 57 +7  1026.2  -1  767  301           
15 02.02.16 200 (Ю) 10 км    9/9 1000 м 
[Sc]
+6.4 -0 64 +6  1026.6  0.5  767  302    +8.2       
18 02.02.16 210 (ЮЗ) 10 км  {морось}  9/9 300 м 
[St]
+5.4 +1.5 76 +5  1026.7  0.1  767  303           
21 02.02.16 200 (Ю) 10 км    9/9 300 м 
[St]
+6.2 +1.6 72 +5  1025.7  0.1  767  302           
00 03.02.16 210 (ЮЗ) 4{10}  10 км    10/10 300 м 
[St]
+7.1 +0.1 61 +6  1025.1  -0.6  766  301           
03 03.02.16 200 (Ю) 5-11{13}  10 км    10/10 300 м 
[St]
+7 -0.9 57 +5  1023.6  -1.5  765  301  +5.2    0.0     
06 03.02.16 190 (Ю) 5-11{14}  10 км    10/10 300 м 
[St]
+7.4 -0.1 59 +6  1023.4  -0.2  765  300           
09 03.02.16 200 (Ю) 7-14{15}  10 км    3/0 средняя 
[Ac trans]
+10.2 -0.2 48 +8  1022.3  -1.1  764  297           
12 03.02.16 210 (ЮЗ) 6-13{16}  10 км    9/0 средняя 
[Ac trans]
+10.2 -0.8 46 +9  1019.9  -2.4  762  296           
15 03.02.16 200 (Ю) 6-12{16}  10 км    9/0 средняя, верхняя 
[Ac trans|Ci fib]
+9.1 -3 42 +7  1018.7  -1.2  761  297    +11       
18 03.02.16 200 (Ю) 5-11{12}  10 км    9/9 1000 м 
[Sc]
+10.1 -5.3 33 +9  1018.5  -0.2  761  296           
21 03.02.16 190 (Ю) 5-11{12}  10 км    9/9 1000 м 
[Sc]
+10.2 -5 34 +9  1017.1  -1.3  760  296           
00 04.02.16 210 (ЮЗ) 4{11}  10 км    9/4 1000 м средняя 
[Sc|Ac trans]
+10.8 -8.5 25 +10  1017.5  0.3  760  296           
03 04.02.16 180 (Ю) 3{12}  10 км    8/0 верхняя 
[Ci]
+10.7 -7.9 26 +10  1015.9  -1.5  759  295  +9         
06 04.02.16 200 (Ю) 10 км    10/0 средняя, верхняя 
[Ac trans|Ci fib]
+12.4 -7.4 24 +12  1016.3  0.4  760  293           
09 04.02.16 190 (Ю) 6-12{13}  10 км    10/0 средняя, верхняя 
[Ac trans|Ci fib]
+16.5 -3.7 25 +16  1015.2  -1.1  759  289           
12 04.02.16 190 (Ю) 6-12{14}  10 км    10/3 1000 м средняя, верхняя 
[Sc|Ac trans|Cs]
+16.9 -2.6 26 +17  1013.2  -2  757  288           
15 04.02.16 200 (Ю) 5-10{14}  10 км    10/3 1000 м средняя, верхняя 
[Sc|Ac trans|Cs]
+14 -2.2 33 +13  1013.4  0.2  757  291    +17.6       
18 04.02.16 180 (Ю) 4{11}  10 км    10/8 1000 м средняя 
[Sc|Ac und]
+12.9 -0.9 38 +12  1013.9  0.5  758  292           
21 04.02.16 190 (Ю) 10 км    10/4 1000 м верхняя 
[Sc|Ci fib]
+11.6 +1.9 51 +12  1014.2  0.3  758  293           
00 05.02.16 180 (Ю) 10 км    10/5 1000 м средняя, верхняя 
[Sc|Ac trans|Ci fib]
+11.7 +5.4 65 +11  1013.8  -0.4  758  292           
03 05.02.16 210 (ЮЗ) 10 км    10/6 1000 м средняя 
[Sc|Ac und]
+11.1 +6.4 73 +12  1013.2  -0.6  757  292  +11         
06 05.02.16 тихо ()   10 км    10/3 1000 м средняя 
[Sc|Ac As]
+8.7 +6.2 84 +9  1013.6  0.3  757  295  +8.5         
09 05.02.16 330 (СЗ) 10 км    10/1 1000 м верхняя 
[Sc|Cs]
+10.2 +6.1 76 +10  1013.8  0.2  758  293           
12 05.02.16 330 (СЗ) 10 км    10/10 300 м 
[St]
+9.2 +5.7 79 +10  1013.2  -0.7  757  294           
15 05.02.16 020 (С) 4000 м  дымка  10/0 средняя 
[Ac und]
+8.1 +5.7 85 +9  1012.6  -0.6  757  295    +12.1       
18 05.02.16 010 (С) 4000 м  дымка  10/10 300 м 
[St]
+7.1 +4.7 85 +8  1012.8  0.2  757  296           
21 05.02.16 020 (С) 0200 м  туман  ?/?  
+5.1 +4.2 94 +5  1012  -0.8  756  298           
00 06.02.16 010 (С) 0500 м  слаб. дождь{туман}  ?/?  
+4.4 +3.5 94 +4  1011.7  -0.3  756  299           
03 06.02.16 020 (С) 1000 м  сильн. морось{дождь}  10/10 300 м 
[St]
+4.1 +3.1 93 +4  1012.1  0.3  756  300  +4.1    0.6     
06 06.02.16 360 (С) 2000 м  слаб. морось{дождь}  10/10 200 м 
[St]
+4.1 +3.1 93 +5  1012.7  0.6  757  300  +4         
09 06.02.16 020 (С) 2000 м  слаб. дождь{морось}  10/10 200 м 
[Frnb|Ns]
+3.5 +2.3 92 +3  1013.8  1.2  758  301           
12 06.02.16 360 (С) 1000 м  ливневой снег  10/10 300 м кучево-дожд. 
[Cb cap]
+0.9 -0.3 92 +2  1015.4  1.5  759  305           
15 06.02.16 020 (С) 4000 м  слаб. ливневой снег  10/10 300 м кучево-дожд. 
[Cb cap]
+0.4 -0.8 92 1018  2.6  761  306    +4.2     
18 06.02.16 360 (С) 1000 м  ливневой снег [диам. отлож. мокр. снега 3 мм]  10/10 200 м кучево-дожд. 
[Cb cap]
+0.3 -0.8 92 +1  1020.5  2.6  763  307           
21 06.02.16 тихо ()   1000 м  ливневой снег [диам. отлож. мокр. снега 12 мм]  10/10 200 м кучево-дожд. 
[Cb cap]
+0.1 -0.9 93 1023  2.4  764  308           
00 07.02.16 тихо ()   4000 м  слаб. снег{ливн. осадки} [диам. отлож. мокр. снега 20 мм]  10/10 200 м 
[Frnb|Ns]
-0.1 -1.1 93 -0  1024.2  1.2  765  309           
03 07.02.16 060 (СВ) 10 км  {снег} [диам. отлож. мокр. снега 20 мм]  9/5 600 м средняя, верхняя 
[Sc diur, vesp|Ac trans|Ci fib]
-1.6 -3.1 89 -1  1025.6  1.4  766  311  -1.6    равномерный
мокрый или
старый снег
100% 
06 07.02.16 070 (В) 10 км  {снег} [диам. отлож. мокр. снега 18 мм]  3/0 средняя 
[Ac trans]
-1.8 -4.2 84 -1  1027.7  1.4  768  312  -2.8         
09 07.02.16 030 (СВ) 10 км    ясно 
+1.7 -2.1 76 +1  1028.5  0.8  768  308           
12 07.02.16 040 (СВ) 10 км    ясно 
+2.7 -3.6 63 +2  1028.5  -0.1  769  307           
15 07.02.16 030 (СВ) 10 км    ясно 
-1.8 -4.1 84 -3  1029.3  0.7  769  312    +3.1       
18 07.02.16 040 (СВ) 10 км    8/8 200 м 
[St]
-3.5 -4.8 91 -5  1030.6  0.7  770  315           
21 07.02.16 040 (СВ) 10 км    ясно 
-4.2 -6 87 -5  1030.6  770  316           
00 08.02.16 060 (СВ) 10 км    ясно 
-4.9 -7.1 85 -6  1030.6  770  317           
03 08.02.16 040 (СВ) 10 км    8/3 300 м средняя 
[St|Ac trans]
-5.1 -6.5 90 -5  1030.9  770  317  -5.3      <0.5  мокрый или
старый снег
50-90% 
06 08.02.16 050 (СВ) 10 км    6/3 300 м верхняя 
[St|Ci fib]
-2.6 -5 84 -2  1031.8  0.9  771  314           
09 08.02.16 070 (В) 10 км    5/5 300 м 
[St]
+1.9 -3.3 68 1031.4  -0.3  771  309           
12 08.02.16 060 (СВ) 10 км    8/8 600 м 
[Sc]
+3.5 -2 67 +3  1030.3  -1.2  770  307           
15 08.02.16 040 (СВ) 10 км    8/8 1000 м средняя, верхняя 
[Sc|Ac trans|Ci fib]
+1.8 -1.7 78 +3  1030.4  0.2  770  308    +4.3       
18 08.02.16 080 (В) 10 км    3/3 1000 м 
[Sc]
+0.6 -1.9 83 +1  1030.9  0.4  770  310           
21 08.02.16 090 (В) 4000 м    3/0 средняя 
[Ac trans]
+0.8 -1.5 85 +1  1030.7  0.1  770  310           
00 09.02.16 080 (В) 4000 м  дымка  3/0 средняя 
[Ac trans]
-0.4 -1.7 91 1030  -0.8  770  311           
03 09.02.16 070 (В) 4000 м  дымка  ясно 
-0.9 -1.9 93 1029.1  -0.8  769  311  -1.1         
06 09.02.16 090 (В) 4000 м  дымка  ясно 
+1.3 -1.1 84 +2  1029.5  0.4  769  309  -1.1         
09 09.02.16 080 (В) 10 км    ясно 
+7.6 +0.1 59 +8  1029  -0.5  769  301           
12 09.02.16 070 (В) 10 км    ясно 
+9.9 +0.6 52 +10  1027.4  -1.5  768  298           
15 09.02.16 070 (В) 10 км    ясно 
+6.9 +1.1 67 +7  1027  -0.5  767  301    +10.1       
18 09.02.16 070 (В) 10 км    ясно 
+2.8 +0.1 82 +4  1026.6  -0.4  767  306           
21 09.02.16 тихо ()   10 км    ясно 
+1.4 -0.4 88 +1  1025.9  -0.7  767  307           
00 10.02.16 070 (В) 10 км    ясно 
+0.9 -0.7 89 +2  1025.1  -0.8  766  308           
03 10.02.16 080 (В) 10 км    ясно 
-0.7 -2 91 1024.7  -0.4  766  310  -1         
06 10.02.16 080 (В) 10 км    ясно 
+1.5 -0.9 84 +2  1024.7  766  307           
09 10.02.16 070 (В) 10 км    ясно 
+10.3 -2.1 42 +11  1022.9  -1.7  764  297           
12 10.02.16 040 (СВ) 10 км    ясно 
+10.5 +2.1 56 +11  1021  -1.8  763  296           
15 10.02.16 060 (СВ) 10 км    ясно 
+5.8 +0.9 71 +6  1021  763  301    +11.3       
18 10.02.16 070 (В) 10 км    ясно 
+3 -0.2 79 +2  1020.1  -1  762  304           
21 10.02.16 070 (В) 10 км    ясно 
+0.6 -1.9 83 +1  1018.8  -1.3  761  306           
00 11.02.16 070 (В) 10 км    ясно 
-0.9 -2.8 87 1017.7  -1  760  308           
03 11.02.16 070 (В) 10 км    ясно 
-1.9 -3.5 89 -1  1017.3  -0.4  760  309  -1.9         
06 11.02.16 080 (В) 10 км    ясно 
-0.1 -3 81 -1  1016.8  -0.5  760  307  -2         
09 11.02.16 080 (В) 10 км    9/0 верхняя 
[Cc]
+7.1 -1.1 56 +7  1015.1  -1.5  759  298           
12 11.02.16 070 (В) 10 км    10/0 верхняя 
[Cc]
+10.4 -1.2 44 +11  1013.8  -1.3  758  294           
15 11.02.16 080 (В) 10 км    10/0 средняя, верхняя 
[Ac As|Cc]
+8.4 +1.5 62 +9  1014  -0.1  758  296    +10.7       
18 11.02.16 090 (В) 10 км    10/6 300 м средняя 
[St|Ac As]
+8 +1.2 62 +8  1014.3  0.3  758  297           
21 11.02.16 200 (Ю) 4{11}  4000 м  слаб. ливневой дождь  10/10 600 м кучево-дожд. 
[Cb cap]
+9.4 +1.5 58 +8  1015.4  1.2  759  295           
00 12.02.16 200 (Ю) 2{11}  10 км  {ливн. осадки}  9/9 300 м средняя 
[St|Ac As]
+7.7 +3.6 75 +8  1017.6  2.1  760  297           
03 12.02.16 тихо ()   10 км    9/9 300 м 
[St]
+4.5 +2.9 89 +5  1019.2  1.5  762  301  +4.2    0.1     
06 12.02.16 110 (В) 10 км    10/8 300 м средняя 
[St|Ac und]
+6.7 +3.3 79 +8  1020.1  0.9  762  299           
09 12.02.16 070 (В) 10 км  {дождь}  10/8 600 м средняя 
[Sc|Ac As]
+8.9 +5 77 +9  1019.7  -0.3  762  297           
12 12.02.16 060 (СВ) 10 км  {дождь}  10/3 1000 м средняя, верхняя 
[Sc|Ac As|Ci fib]
+11.4 +4.2 61 +12  1018.7  -1  761  294           
15 12.02.16 090 (В) 10 км    10/10 1000 м 
[Sc]
+10 +2 57 +9  1018.2  -0.5  761  295    +12  0.0     
18 12.02.16 120 (ЮВ) 10 км  {дождь}  10/10 1000 м 
[Sc]
+9.4 +2.3 61 +9  1016.9  -1.3  760  296           
21 12.02.16 130 (ЮВ) 10 км    10/10 1000 м 
[Sc]
+9.5 +4.2 69 +11  1016.6  -0.3  760  295           
00 13.02.16 210 (ЮЗ) 10 км    ясно 
+10.7 +4.6 66 +10  1017.2  0.6  760  294           
03 13.02.16 220 (ЮЗ) 10 км    10/10 1000 м 
[Sc]
+10.7 +5.4 70 +11  1017.6  0.4  760  294  +5.8    0.0     
06 13.02.16 030 (СВ) 10 км  {дождь}  9/8 1000 м средняя 
[Sc|Ac trans]
+8.8 +6.3 84 +10  1017.2  -0.4  760  296           
09 13.02.16 060 (СВ) 10 км    9/8 1000 м кучево-дожд., средняя 
[Cb cap|Ac trans]
+9.7 +4.3 69 +10  1016.9  -0.4  760  295           
12 13.02.16 070 (В) 10 км    10/3 1000 м средняя, верхняя 
[Sc|Ac trans|Ci fib]
+13.3 +5.8 60 +14  1014.4  -2.4  758  290           
15 13.02.16 060 (СВ) 10 км    9/3 1000 м средняя, верхняя 
[Sc|Ac trans|Ci fib]
+11.2 +5.4 67 +11  1013.3  -1.1  757  292    +13.7  0.0     
18 13.02.16 060 (СВ) 10 км    10/10 600 м 
[Sc]
+10.3 +5.8 74 +11  1012.4  -0.9  757  293           
21 13.02.16 тихо ()   10 км    10/10 600 м 
[Sc]
+9.9 +5.6 75 +10  1012.2  -0.2  756  293           
00 14.02.16 070 (В) 10 км    10/10 600 м 
[Sc]
+12.3 +5.4 63 +14  1011.4  -0.8  756  291           
03 14.02.16 150 (ЮВ) 10 км  слаб. дождь  10/10 300 м 
[Frnb]
+12.1 +6.6 69 +13  1011.1  -0.3  756  290  +9.7    0.4     
06 14.02.16 150 (ЮВ) 10 км  {дождь}  9/9 1000 м 
[Sc]
+13.4 +6.3 62 +13  1011  -0.3  756  289           
09 14.02.16 200 (Ю) 4-12{12}  10 км    9/9 1000 м 
[Sc]
+17.4 +5.5 45 +18  1011.1  0.2  756  285           
12 14.02.16 210 (ЮЗ) 4-10{13}  10 км    9/9 1000 м 
[Sc]
+16.6 +2.8 40 +17  1012  0.9  756  287           
15 14.02.16 200 (Ю) 10 км    10/10 1000 м 
[Sc]
+13.2 +6.1 62 +13  1014  758  290    +19.5  0.0     
18 14.02.16 170 (Ю) 10 км    3/3 1000 м 
[Sc]
+11.1 +6.6 74 +11  1015.3  1.2  759  293           
21 14.02.16 200 (Ю) 4000 м  слаб. ливневой дождь  10/10 600 м кучево-дожд. 
[Cb cap]
+10.6 +7.5 81 +10  1016.3  760  293           
00 15.02.16 190 (Ю) 10 км  {ливн. осадки}  10/10 1000 м 
[Sc diur, vesp]
+11.1 +7.8 80 +11  1017  0.7  760  293           
03 15.02.16 200 (Ю) 10 км  {ливн. осадки}  10/10 1000 м 
[Sc diur, vesp]
+11.7 +7.7 76 +13  1018.2  1.2  761  293  +10.4       
06 15.02.16 090 (В) 10 км    10/3 1000 м верхняя 
[Sc|Ci fib]
+13.1 +8 71 +14  1019.6  1.4  762  292  +9.5         
09 15.02.16 190 (Ю) 10 км    8/3 1000 м средняя, верхняя 
[Sc|Ac trans|Ci fib]
+18.8 +5.9 43 +19  1020.4  0.8  763  287           
12 15.02.16 210 (ЮЗ) 3{11}  10 км    8/0 средняя, верхняя 
[Ac trans|Cc]
+20.3 +4.8 36 +20  1021  0.6  763  285           
15 15.02.16 200 (Ю) 1{10}  10 км    3/3 1000 м 
[Sc]
+16.7 +5.3 47 +18  1022.8  1.8  764  289    +20.7       
18 15.02.16 тихо ()   10 км    4/4 1000 м 
[Sc]
+13.1 +4.9 57 +13  1024.3  1.4  765  294           
21 15.02.16 070 (В) 10 км    10/8 1000 м средняя 
[Sc|Ac und]
+12.4 +5.5 63 +14  1024.7  0.4  766  294           
00 16.02.16 100 (В) 10 км    10/10 1000 м 
[Sc]
+12.4 +5.8 64 +14  1025.1  0.4  766  294           
03 16.02.16 180 (Ю) 10 км    10/6 1000 м средняя 
[Sc|Ac und]
+14.6 +5 52 +16  1025.6  0.6  767  292  +10.9         
06 16.02.16 210 (ЮЗ) 10 км  {ливн. осадки}  10/10 1000 м 
[Sc]
+15.3 +6.8 57 +17  1026.1  0.5  767  292           
09 16.02.16 190 (Ю) 5-10{10}  10 км    1/0 средняя 
[Ac trans]
+21.1 +4.7 34 +21  1026.1  0.1  767  286           
12 16.02.16 210 (ЮЗ) 4-10{12}  10 км    3/0 верхняя 
[Ci fib]
+21.9 +4.7 33 +22  1025.4  -0.7  766  285           
15 16.02.16 220 (ЮЗ) 2{12}  10 км    9/3 1000 м средняя 
[Sc|Ac trans]
+18.3 +4.3 39 +19  1027  1.5  768  289    +22.1  0.0     
18 16.02.16 210 (ЮЗ) 10 км    9/5 1000 м средняя 
[Sc|Ac trans]
+16.2 +4.6 46 +17  1027.9  0.8  768  292           
21 16.02.16 230 (ЮЗ) 10 км    10/6 1000 м средняя 
[Sc|Ac und]
+16.2 +5.7 50 +17  1028.6  0.8  769  292           
00 17.02.16 230 (ЮЗ) 10 км    8/0 средняя 
[Ac trans]
+15.1 +5.6 53 +16  1028.2  -0.5  768  293           
03 17.02.16 300 (СЗ) 10 км    9/3 1000 м средняя 
[Sc|Ac trans]
+12.4 +7.7 73 +13  1029.2  769  295  +12.4         
06 17.02.16 280 (З) 10 км    8/0 верхняя 
[Ci fib]
+11.2 +7.7 79 +11  1030  0.7  770  297  +10.2         
09 17.02.16 290 (З) 10 км    10/0 средняя, верхняя 
[Ac trans|Cc]
+14.5 +7.1 61 +15  1029.9  770  293           
12 17.02.16 330 (СЗ) 10 км    10/3 1000 м средняя, верхняя 
[Sc|Ac trans|Cc]
+14.5 +5.5 55 +15  1029.4  -0.6  769  294           
15 17.02.16 010 (С) 10 км    10/5 1000 м средняя, верхняя 
[Sc|Ac As|Cc]
+10.5 +3.1 60 +11  1030.3  0.8  770  298    +15.2       
18 17.02.16 350 (С) 10 км    10/0 средняя, верхняя 
[Ac trans|Cs]
+7 +2.3 72 +8  1032.3  771  303           
21 17.02.16 360 (С) 10 км    10/0 средняя, верхняя 
[Ac As|Cs]
+4.6 -0.1 72 +5  1032.2  -0.2  771  306           
00 18.02.16 020 (С) 10 км    5/0 верхняя 
[Ci fib]
+2.2 -2.9 69 +3  1032.6  0.3  772  309           
03 18.02.16 030 (СВ) 10 км    4/0 верхняя 
[Ci fib]
-0.2 -5.1 69 1033.7  772  312  -0.2         
06 18.02.16 050 (СВ) 10 км    ясно 
+1 -5.8 60 1034.1  0.4  773  311  -1         
09 18.02.16 040 (СВ) 10 км    ясно 
+5.7 -8.7 35 +5  1032.5  -1.5  772  305           
12 18.02.16 030 (СВ) 10 км    ясно 
+8 -9.2 28 +8  1030.9  -1.5  770  302           
15 18.02.16 020 (С) 10 км    ясно 
+4.7 -10.8 31 +6  1031.1  -0.1  770  306    +8       
18 18.02.16 050 (СВ) 10 км    ясно 
+2.9 -8.9 41 +2  1029.1  -2  769  308           
21 18.02.16 030 (СВ) 10 км    3/0 верхняя 
[Ci fib]
+0.6 -8.1 52 +1  1027  -2.1  767  309           
00 19.02.16 030 (СВ) 10 км    ясно 
-0.3 -8.3 55 1025.7  -1.3  766  310           
03 19.02.16 070 (В) 10 км    ясно 
-1.9 -6.5 71 -1  1024.2  -1.5  765  311  -1.9         
06 19.02.16 070 (В) 10 км    1/0 верхняя 
[Ci fib]
-0.4 -5.9 66 -2  1022.8  -1.4  764  309  -2.4         
09 19.02.16 040 (СВ) 10 км    1/0 средняя 
[Ac trans]
+3.2 -5.5 53 +3  1021.2  -1.5  763  305           
12 19.02.16 060 (СВ) 4{10}  10 км    6/6 1000 м 
[Sc]
+3.4 -6.1 50 +1  1019.7  -1.5  762  304           
15 19.02.16 040 (СВ) 2{10}  10 км    10/10 1000 м 
[Sc]
+1.3 -6.2 57 +1  1019.4  -0.4  762  306    +3.5       
18 19.02.16 050 (СВ) 3{12}  10 км    10/10 1000 м 
[Sc]
+0.8 -6.4 59 -1  1020.2  0.8  762  307           
21 19.02.16 040 (СВ) н/о    н/о 
-0.1 -4.3 73 -1  1020.5  0.3  763  308           
00 20.02.16 040 (СВ) 3{10}  10 км    10/10 1000 м 
[Sc]
-0.6 -4 78 -2  1020.6  0.1  763  308           
03 20.02.16 050 (СВ) 3{10}  10 км    10/10 1000 м 
[Sc]
-2.5 -6.9 72 -5  1022.5  1.9  764  311  -2.5         
06 20.02.16 060 (СВ) 10 км    8/5 1000 м средняя 
[Sc|Ac trans]
-2.9 -7.2 72 -6  1023.7  1.2  765  312  -3.7         
09 20.02.16 040 (СВ) 3{10}  10 км    6/6 1000 м 
[Sc]
+1.6 -6.9 53 1023.9  0.2  765  307           
12 20.02.16 040 (СВ) 10 км    5/5 1000 м 
[Sc]
+3.5 -6.7 47 +3  1022.6  -1.3  764  305           
15 20.02.16 040 (СВ) 10 км    3/0 средняя, верхняя 
[Ac trans|Ci fib]
+1 -6.3 58 +2  1022.2  -0.4  764  307    +3.7       
18 20.02.16 040 (СВ) 10 км    6/0 верхняя 
[Ci fib]
-1.3 -6.8 66 -2  1022.2  764  310           
21 20.02.16 090 (В) 10 км    8/8 300 м верхняя 
[St|Ci fib]
-1.4 -6 71 -1  1021.7  -0.6  763  310           
00 21.02.16 100 (В) 10 км    9/9 300 м 
[St]
-0.9 -6 68 -2  1020.7  -0.9  763  309           
03 21.02.16 070 (В) 10 км    10/10 1000 м 
[Sc]
-0.5 -5.3 70 1019.3  -1.4  762  308  -2.3         
06 21.02.16 050 (СВ) 10 км    10/10 1000 м 
[Sc]
-0.4 -5 71 -1  1019.3  762  308           
09 21.02.16 080 (В) 10 км    10/10 1000 м 
[Sc]
+3.9 -5.4 51 +5  1018.3  -1  761  303           
12 21.02.16 050 (СВ) 10 км    10/10 1000 м 
[Sc]
+5.7 -6.2 42 +7  1016.8  -1.4  760  301           
15 21.02.16 030 (СВ) 10 км    10/10 1000 м 
[Sc]
+5 -4.6 50 +6  1017.1  -1.4  760  301    +5.9       
18 21.02.16 020 (С) 10 км    10/10 1000 м 
[Sc]
+4.4 -5 50 +5  1017.1  0.1  760  302           
21 21.02.16 тихо ()   10 км    10/10 1000 м 
[Sc]
+3.9 -3.8 57 +4  1017  -0.1  760  302           
00 22.02.16 тихо ()   4000 м  слаб. дождь  10/10 300 м 
[Frnb]
+2.3 +0.2 86 +2  1017.4  0.4  760  304           
03 22.02.16 090 (В) 4000 м  {ливн. осадки}  10/10 600 м кучево-дожд. 
[Cb cap]
+1.8 +0.5 91 +3  1018.5  1.1  761  305  +1.6       
06 22.02.16 210 (ЮЗ) 4000 м  дымка{ливн. осадки}  9/8 1000 м средняя 
[Sc|Ac trans]
+2.9 +0.8 86 +4  1020.7  2.2  763  304           
09 22.02.16 260 (З) 10 км    3/3 600 м 
[St]
+8.2 +1.8 64 +8  1021.2  0.6  763  298           
12 22.02.16 180 (Ю) 10 км    8/8 1000 м средняя 
[Sc|Ac trans]
+9.6 +2.4 61 +10  1021.3  -0.1  763  297           
15 22.02.16 200 (Ю) 10 км    3/3 1000 м 
[Sc]
+8.3 +2.1 65 +8  1021.6  0.3  763  298    +10.9       
18 22.02.16 180 (Ю) 10 км    ясно 
+5.9 +0.9 70 +6  1023.5  1.9  765  302           
21 22.02.16 180 (Ю) 10 км    ясно 
+5.9 +0.9 70 +6  1023.6  765  302           
00 23.02.16 190 (Ю) 10 км    ясно 
+5.9 +0.6 69 +5  1023.5  765  302           
03 23.02.16 100 (В) 10 км    ясно 
+3.8 +0.8 81 +5  1022.5  -1.1  764  304  +3.8         
06 23.02.16 150 (ЮВ) 10 км    1/0 средняя 
[Ac trans]
+7.9 +2.8 70 +9  1022.9  0.5  764  299  +2.9         
09 23.02.16 150 (ЮВ) 10 км    ясно 
+12.7 +2.3 49 +14  1021.3  -1.6  763  294           
12 23.02.16 250 (З) 10 км    1/0 верхняя 
[Cc]
+15.3 +0.5 36 +17  1018.4  -2.9  761  290           
15 23.02.16 080 (В) 10 км    1/0 средняя 
[Ac trans]
+12.2 +2.9 53 +13  1016.9  -1.4  760  293    +16.2       
18 23.02.16 тихо ()   10 км    3/0 верхняя 
[Ci]
+8 +3.4 73 +8  1015.8  -1.2  759  297           
21 23.02.16 210 (ЮЗ) 10 км    10/0 верхняя 
[Ci]
+7.2 +3.4 77 +8  1014.1  -1.7  758  297           
00 24.02.16 210 (ЮЗ) 10 км    ясно 
+6 +2.1 76 +7  1013.8  -0.4  758  298           
03 24.02.16 тихо ()   10 км    4/0 верхняя 
[Ci]
+5.6 +2.8 82 +6  1013.4  -0.4  757  299  +5.1         
06 24.02.16 100 (В) 10 км    6/0 верхняя 
[Ci]
+7.7 +3.5 75 +9  1013.6  0.2  757  296  +4.1         
09 24.02.16 180 (Ю) 10 км    10/0 средняя, верхняя 
[Ac trans|Ci]
+14.5 +3.7 48 +15  1011.9  -1.6  756  289           
12 24.02.16 190 (Ю) 10 км    10/0 средняя, верхняя 
[Ac As|Ci]
+16.8 +1.1 35 +17  1010.6  -1.3  755  287           
15 24.02.16 190 (Ю) 10 км    10/0 средняя, верхняя 
[Ac As|Cc]
+13.4 +2.7 48 +13  1010.5  -1.3  755  290    +17.5       
18 24.02.16 200 (Ю) 10 км    10/10 1000 м верхняя 
[Sc|Ac trans|Ci fib]
+11.6 +2.4 53 +13  1010.5  755  292           
21 24.02.16 200 (Ю) 10 км    10/4 1000 м средняя, верхняя 
[Sc|Ac trans|Ci fib]
+12.1 +1.3 48 +12  1009.9  -0.6  755  291           
00 25.02.16 200 (Ю) 4{11}  10 км    10/4 1000 м средняя, верхняя 
[Sc|Ac trans|Ci fib]
+12.3 +0.6 45 +12  1010.1  0.3  755  291           
03 25.02.16 190 (Ю) 3{11}  10 км    10/8 1000 м верхняя 
[Sc|Ci fib]
+11.9 +3.1 55 +12  1010.3  0.1  755  291  +11.5         
06 25.02.16 190 (Ю) 4-10{10}  10 км    10/10 1000 м 
[Sc]
+11.1 +5.6 69 +10  1010.8  0.5  755  292  +11.1         
09 25.02.16 220 (ЮЗ) 3{11}  4000 м  слаб. ливневой дождь  10/10 600 м кучево-дожд. 
[Cb cap]
+10.4 +7.6 83 +10  1012.5  1.7  757  292           
12 25.02.16 260 (З) 4-10{10}  4000 м  слаб. ливневой дождь  10/10 600 м кучево-дожд. 
[Cb cap]
+6.4 +4.6 88 +5  1015.9  3.3  759  298           
15 25.02.16 280 (З) 3{10}  10 км  {ливн. осадки}  9/9 1000 м 
[Sc diur, vesp]
+4.8 +1.9 81 +4  1018.7  2.8  761  301    +11.9     
18 25.02.16 290 (З) 10 км    10/10 1000 м 
[Sc diur, vesp]
+4.2 -0.1 74 +4  1021.1  2.3  763  303           
21 25.02.16 340 (С) 10 км    10/10 1000 м 
[Sc diur, vesp]
+4 -1.1 69 +5  1022.7  1.6  764  304           
00 26.02.16 тихо ()   10 км    10/10 1000 м 
[Sc diur, vesp]
+3.9 -1.6 67 +4  1023  0.3  764  304           
03 26.02.16 070 (В) 10 км    9/9 1000 м 
[Sc diur, vesp]
+3.6 -0.7 73 +4  1022.9  -0.1  764  304  +3.5         
06 26.02.16 090 (В) 10 км    10/10 300 м 
[St]
+4.1 +0.2 76 +3  1023  -0.1  764  303           
09 26.02.16 090 (В) 10 км    9/8 1000 м средняя 
[Sc|Ac trans]
+6.2 +1.7 73 +5  1022.3  -0.6  764  301           
12 26.02.16 090 (В) 10 км    9/8 1000 м средняя 
[Sc|Ac trans]
+8.9 +4 71 +9  1020.7  -1.6  763  297           
15 26.02.16 060 (СВ) 10 км    10/6 1000 м средняя, верхняя 
[Sc|Ac trans|Ci fib]
+9.2 +4.9 74 +9  1019.9  -0.8  762  296    +9.9       
18 26.02.16 080 (В) 10 км    6/3 1000 м верхняя 
[Sc|Ci fib]
+8.1 +5.1 81 +8  1019  -0.9  761  297           
21 26.02.16 090 (В) 10 км    8/0 верхняя 
[Ci fib]
+7.5 +3.6 76 +8  1017.8  -1.2  761  298           
00 27.02.16 080 (В) 10 км    10/4 1000 м средняя, верхняя 
[Sc|Ac trans|Ci fib]
+5.7 +2.8 82 +7  1016.5  -1.3  760  299           
03 27.02.16 090 (В) 10 км    10/3 1000 м средняя, верхняя 
[Sc|Ac trans|Ci fib]
+6 +3 81 +6  1015.5  -0.9  759  299  +5.6         
06 27.02.16 080 (В) 10 км    8/3 1000 м средняя, верхняя 
[Sc|Ac trans|Ci fib]
+8.5 +3.8 72 +10  1015.6  -0.1  759  296           
09 27.02.16 350 (С) 10 км    8/0 средняя, верхняя 
[Ac trans|Ci fib]
+18.3 +5.7 44 +20  1015.3  -0.2  759  286           
12 27.02.16 010 (С) 10 км    8/4 1000 м средняя, верхняя 
[Sc|Ac lent|Ci fib]
+20.1 +8.5 47 +20  1014.8  -0.5  758  283           
15 27.02.16 тихо ()   10 км    10/5 1000 м средняя, верхняя 
[Sc|Ac trans|Ci fib]
+16 +8 59 +16  1015.5  0.6  759  288    +20.6       
18 27.02.16 290 (З) 10 км    9/9 1000 м 
[Sc]
+12.4 +7.1 70 +13  1017.3  1.8  760  292           
21 27.02.16 260 (З) 10 км    10/0 верхняя 
[Ci fib]
+9.6 +6.7 82 +11  1017.8  0.4  761  295           
00 28.02.16 280 (З) 10 км    10/0 верхняя 
[Cc]
+7.7 +5.4 85 +8  1019.8  762  298           
03 28.02.16 250 (З) 4000 м  дымка  10/10 300 м кучево-дожд. 
[Cb cap]
+7.4 +5.8 90 +7  1022  2.1  764  299  +7.2         
06 28.02.16 290 (З) 2000 м  дымка{ливн. осадки}  10/10 300 м кучево-дожд. 
[Cb cap]
+7.6 +6.7 94 +8  1024.3  2.3  765  299  +6.9         
09 28.02.16 250 (З) 4000 м  дымка{ливн. осадки}  10/10 300 м 
[St]
+8.9 +7.6 92 +10  1026  1.7  767  298           
12 28.02.16 260 (З) 4000 м  дымка{ливн. осадки}  10/10 300 м 
[St]
+10.6 +8 84 +12  1027  767  296           
15 28.02.16 280 (З) 4000 м  дымка  10/10 300 м 
[St]
+9.1 +6.5 84 +9  1029.2  2.2  769  299    +10.7     
18 28.02.16 330 (СЗ) 10 км    10/10 1000 м 
[Sc]
+8 +6 87 +9  1031.3  771  301           
21 28.02.16 300 (СЗ) 4000 м  дымка  10/10 300 м 
[St]
+7 +5.4 90 +8  1032.4  1.1  771  302           
00 29.02.16 060 (СВ) 4000 м  дымка  10/10 300 м 
[St]
+7.3 +5.6 89 +8  1032.5  0.1  772  302           
03 29.02.16 070 (В) 4000 м  дымка  10/10 300 м 
[St]
+7.5 +6.1 91 +8  1032.6  -0.1  772  302  +7         
06 29.02.16 090 (В) 2000 м  дымка  10/10 300 м 
[St]
+8.4 +6.7 89 +8  1033.6  772  301           
09 29.02.16 130 (ЮВ) 4000 м  дымка  9/9 600 м 
[Sc]
+12.4 +8.1 75 +14  1032.4  -1.1  772  296           
12 29.02.16 130 (ЮВ) 10 км    3/1 300 м верхняя 
[St|Ci fib]
+16.3 +7.7 57 +18  1030  -2.4  770  291           
15 29.02.16 050 (СВ) 10 км    10/0 средняя, верхняя 
[Ac trans|Ci]
+15.1 +7.8 62 +16  1028.9  -1.1  769  292    +16.9       
18 29.02.16 080 (В) 10 км    10/0 верхняя 
[Ci]
+12.1 +7.6 74 +13  1028.8  0.1  769  295           
21 29.02.16 070 (В) 10 км    ясно 
+10.2 +7.2 82 +11  1027.4  -1.4  768  297           
00 01.03.16 060 (СВ) 10 км    ясно 
+8 +6.4 90 +9  1025.9  -1.5  767  299           
03 01.03.16 090 (В) 10 км    ясно 
+7 +5.8 92 +8  1024.8  -1.5  766  300  +6.9         
06 01.03.16 110 (В) 10 км    10/0 верхняя 
[Cs]
+9.3 +5.8 79 +9  1024  -0.7  765  297  +6.5         
09 01.03.16 070 (В) 10 км    10/0 верхняя 
[Cs]
+18.7 +2.8 35 +20  1021.2  -2.6  763  287           
12 01.03.16 060 (СВ) 10 км    10/0 верхняя 
[Ci fib]
+21.1 +4.2 33 +21  1018  -3.2  761  284           
15 01.03.16 040 (СВ) 10 км    10/0 верхняя 
[Ci fib]
+19.3 +6.1 42 +20  1015.9  -2.1  759  285    +21.4       
18 01.03.16 080 (В) 10 км    6/0 верхняя 
[Ci fib]
+13.9 +7.1 64 +14  1013.8  -2.1  758  289           
21 01.03.16 080 (В) 10 км    5/3 1000 м верхняя 
[Sc|Ci fib]
+10.8 +5 67 +11  1012  -1.9  756  292           
00 02.03.16 070 (В) 10 км    10/5 1000 м верхняя 
[Sc|Ci fib]
+8.8 +3.9 71 +10  1010.9  -1.1  755  294           
03 02.03.16 050 (СВ) 10 км    6/6 1000 м 
[Sc]
+7.1 +3.4 77 +8  1010.6  -0.3  755  296  +6.9         
06 02.03.16 060 (СВ) 10 км    10/0 средняя, верхняя 
[Ac cast|Cc]
+8.5 +3.8 72 +10  1011.4  0.8  756  295  +6.4         
09 02.03.16 320 (СЗ) 10 км    6/1 1000 м средняя, верхняя 
[Sc|Ac cast|Ci fib]
+16.3 +4.3 45 +17  1011.2  0.1  756  287           
12 02.03.16 100 (В) 10 км    10/0 средняя, верхняя 
[Ac trans|Cc]
+19.2 +4.8 39 +20  1009.4  -1.7  754  283           
15 02.03.16 070 (В) 10 км    10/0 средняя, верхняя 
[Ac trans|Cc]
+18.1 +5.1 42 +20  1008.9  -0.5  754  284    +21.7       
18 02.03.16 080 (В) 10 км    10/0 средняя, верхняя 
[Ac cast|Ci fib]
+14.6 +5 52 +16  1008.1  -0.8  753  287           
21 02.03.16 тихо ()   10 км    10/0 средняя, верхняя 
[Ac trans|Ci fib]
+11.9 +4.9 62 +12  1007.5  -0.6  753  290           
00 03.03.16 тихо ()   10 км    10/3 1000 м средняя 
[Sc|Ac trans]
+10 +4.7 70 +10  1006  -1.6  752  291           
03 03.03.16 080 (В) 10 км    10/0 средняя 
[Ac und]
+8.6 +4.7 76 +10  1005.8  -0.2  752  293  +8.5         
Время (UTC), дата Ветер
(°,м/с) 
Видим.   Явления Облачность Т
(°С)
Тd
(°С)
f(%) Тe
(°С)
Pmin
(гПа)
dP
(гПа)
Po
(мм)
O2
(г/м3)
Тmin Tmax R s Состояние
почвы